Home   Weather   Tacoma   Past weeks

Flag for USA Past Weather in Tacoma, Washington, USA — Yesterday and Last 2 Weeks

Now
39 °F

Partly cloudy.


Feels Like: 31 °F
Forecast: 37 / 44 °F
Wind: 13 mph from South

Location: Tacoma Narrows Airport

Current Time: Dec 10, 2016 at 2:52:50 am

Latest Report: Dec 10, 2016 at 1:53 am


Visibility: 10 mi

Pressure: 29.83 "Hg

Humidity: 93%

Dew Point: 37 °F

Location of TacomaLocation

Past Weather in Tacoma — Graph

°F

Tacoma Temperature Yesterday

Maximum temperature yesterday: 40 °F (at 1:53 pm)
Minimum temperature yesterday: 31 °F (at 12:01 am)
Average temperature yesterday: 36 °F

High & Low Weather Summary for the Past Weeks

 TemperatureHumidityPressure
High50 °F (Nov 25, 11:53 am)100% (Nov 25, 7:53 am)30.43 "Hg (Nov 25, 7:53 am)
Low30 °F (Dec 8, 8:53 pm)38% (Dec 8, 11:53 am)29.43 "Hg (Nov 26, 3:53 pm)
Average41 °F86%30.03 "Hg
* Reported Nov 25 12:53 am — Dec 10 12:53 am, Tacoma, Weather by CustomWeather, © 2016

Note: Actual official high and low records may vary slightly from our data, if they occured in-between our weather recording intervals... More about our weather records

Advertising

Tacoma Weather History for the Previous 24 Hours

Scroll right to see more
 ConditionsComfort  
Time TempWeatherWind HumidityBarometerVisibility
12:53 am
Sat, Dec 10
40 °FOvercast.12 mph93%29.83 "Hg10 mi
11:53 pm
Fri, Dec 9
40 °FOvercast.14 mph93%29.83 "Hg10 mi
10:53 pm40 °FMostly cloudy.12 mph97%29.83 "Hg10 mi
9:53 pm40 °FLight rain. Overcast.8 mph97%29.83 "Hg10 mi
8:53 pm40 °FLight rain. Mostly cloudy.10 mph100%29.83 "Hg10 mi
7:53 pm38 °FLight rain. Fog.No wind97%29.83 "Hg6 mi
6:53 pm37 °FLight rain. Mostly cloudy.No wind100%29.85 "Hg10 mi
5:53 pm37 °FMostly cloudy.3 mph100%29.87 "Hg10 mi
4:53 pm37 °FLight rain. Fog.3 mph100%29.89 "Hg6 mi
3:53 pm38 °FLight rain. Fog.5 mph97%29.93 "Hg6 mi
2:53 pm39 °FBroken clouds.6 mph96%29.93 "Hg10 mi
1:53 pm40 °FMore clouds than sun.6 mph97%29.94 "Hg10 mi
12:53 pm39 °FLight rain. Fog.5 mph100%29.95 "Hg6 mi
11:53 am38 °FLight rain. Mostly cloudy.14 mph97%29.97 "Hg10 mi
10:53 am37 °FLight rain. Fog.6 mph96%30.00 "Hg2 mi
9:53 am35 °FLight rain. Fog.3 mph100%30.00 "Hg2 mi
8:53 am35 °FLight rain. Fog.5 mph96%29.99 "Hg6 mi
7:53 am34 °FMostly cloudy.No wind100%29.98 "Hg10 mi
6:56 am33 °FLight rain. Fog.3 mph96%29.97 "Hg2 mi
5:53 am32 °FLight snow. Mostly cloudy.3 mph100%29.98 "Hg7 mi
4:53 am33 °FOvercast.No wind96%29.97 "Hg10 mi
3:53 am32 °FLight snow. Ice fog.No wind100%29.98 "Hg5 mi
3:02 am32 °FLight snow. Ice fog.No wind100%29.97 "Hg6 mi
2:53 am32 °FIce fog.3 mph96%29.98 "Hg6 mi
Weather by CustomWeather, © 2016

See weather overviewHow to use our weather pages